Latest Coastal Weather Observations for Truscott

IDW60701

Issued at 7:45 pm WST Saturday 1 November 2014 (issued every 10 minutes, with the page automatically refreshed every 10 minutes)

About coastal observations | Map of coastal stations | Coastal observations for WA | Marine services | Other Formats
Station Details ID: 001020 Name: TRUSCOTT Lat: -14.09 Lon: 126.39 Height: 51.0 m
Data from the previous 72 hours. | See also: Recent months at Truscott
Date/Time
WST
Temp

°C
Wind Pressure Rain
since 9am
mm
Weather Cloud Vis
km
Sea
Height
m
Swell
Dir
 
Speed
knots
Gust
knots
hPa Trend Height
m
Period
s
Dir
01/07:30pm 28.0 N 5 8 1009.0 - 0.0 - Partly cloudy 10 - - - -
01/07:00pm 28.0 N 6 - 1009.0 - 0.0 - Partly cloudy 10 - - - -
01/06:30pm 28.0 N 6 - 1008.0 - 0.0 - Partly cloudy 10 - - - -
01/06:00pm 28.3 N 6 - 1007.8 - 0.0 - Mostly clear 10 - - - -
01/05:30pm 29.0 N 5 - 1008.0 - 0.0 - - 10 - - - -
01/05:00pm 29.0 N 7 - 1007.0 - 0.0 - - 10 - - - -
01/04:30pm 30.0 N 7 - 1007.0 - 0.0 - - 9 - - - -
01/04:00pm 30.0 N 8 - 1007.0 - 0.0 - - 10 - - - -
01/03:30pm 31.0 N 10 - 1007.0 - 0.0 - - 10 - - - -
01/03:00pm 31.3 N 9 - 1006.6 - 0.0 - - 10 - - - -
01/02:30pm 31.0 N 10 - 1007.0 - 0.0 - - 10 - - - -
01/02:00pm 33.0 N 10 - 1007.0 - 0.0 - - 10 - - - -
01/01:30pm 32.0 N 9 - 1007.0 - 0.0 - - 10 - - - -
01/01:00pm 33.0 NNW 9 - 1008.0 - 0.0 - - 10 - - - -
01/12:30pm 31.0 N 10 - 1008.0 - 0.0 - - 10 - - - -
01/12:00pm 32.4 N 10 - 1008.3 - 0.0 - - 10 - - - -
01/11:30am 32.0 N 11 - 1009.0 - 0.0 - - 10 - - - -
01/11:00am 33.0 NNW 9 - 1009.0 - 0.0 - - 10 - - - -
01/10:30am 34.0 WNW 7 11 1010.0 - 0.0 - - 10 - - - -
01/10:00am 34.0 WNW 6 - 1010.0 - 0.0 - - 8 - - - -
01/09:30am 33.0 NW 6 - 1010.0 - 0.0 - - 10 - - - -
01/09:00am 32.1 WNW 5 - 1010.4 - 0.0 - - 10 - - - -
01/08:30am 31.0 W 6 - 1011.0 - 0.0 - - 10 - - - -
01/08:00am 30.0 WNW 6 - 1010.0 - 0.0 - - 10 - - - -
01/07:30am 30.0 NNW 2 - 1010.0 - 0.0 - Partly cloudy 10 - - - -
01/07:00am 29.0 WSW 3 - 1010.0 - 0.0 - Partly cloudy 10 - - - -
01/06:30am 28.0 W 2 - 1010.0 - 0.0 - - 10 - - - -
01/06:00am 26.5 CALM 0 - 1009.2 - 0.0 - Mostly clear 10 - - - -
01/05:30am 25.0 CALM 0 - 1009.0 - 0.0 - Partly cloudy 10 - - - -
01/05:00am 25.0 CALM 0 - 1009.0 - 0.0 - Partly cloudy 10 - - - -
01/04:30am 25.0 CALM 0 - 1008.0 - 0.0 - - 10 - - - -
01/04:00am 25.0 CALM 0 - 1008.0 - 0.0 - - 8 - - - -
01/03:30am 25.0 CALM 0 - 1008.0 - 0.0 - - 10 - - - -
01/03:00am 25.2 CALM 0 - 1007.0 - 0.0 - - 10 - - - -
01/02:30am 25.0 WNW 0 0 1007.0 - 0.0 - - 9 - - - -
01/02:00am 26.0 WNW 1 - 1007.0 - 0.0 - - 10 - - - -
01/01:30am 25.0 CALM 0 - 1007.0 - 0.0 - - 9 - - - -
01/01:28am 25.0 WNW 0 0 1007.0 - 0.0 - - 9 - - - -
01/01:00am 26.0 CALM 0 - 1007.0 - 0.0 - - 4 - - - -
01/12:56am 26.0 CALM 0 - 1007.0 - 0.0 - - 5 - - - -
01/12:50am 26.0 CALM 0 - 1007.0 - 0.0 - - 8 - - - -
01/12:30am 26.0 WNW 1 - 1007.0 - 0.0 - - 4 - - - -
01/12:05am 27.0 WSW 2 - 1008.0 - 0.0 - - 5 - - - -
01/12:00am 26.7 W 3 3 1007.6 - 0.0 - - 8 - - - -
 
Date/Time
WST
Temp

°C
Wind Pressure Rain
since 9am
mm
Weather Cloud Vis
km
Sea
Height
m
Swell
Dir
 
Speed
knots
Gust
knots
hPa Trend Height
m
Period
s
Dir
31/11:51pm 27.0 WNW 4 - 1008.0 - 0.0 - - 9 - - - -
31/11:38pm 26.0 NW 4 - 1008.0 - 0.0 - - 5 - - - -
31/11:30pm 26.0 WNW 4 - 1008.0 - 0.0 - - 9 - - - -
31/11:00pm 26.0 NNW 4 - 1008.0 - 0.0 - - 7 - - - -
31/10:30pm 27.0 W 2 - 1009.0 - 0.0 - - 10 - - - -
31/10:00pm 27.0 NNW 3 - 1009.0 - 0.0 - - 8 - - - -
31/09:30pm 28.0 W 4 - 1009.0 - 0.0 - - 10 - - - -
31/09:00pm 28.0 WNW 4 - 1008.9 - 0.0 - - 10 - - - -
31/08:30pm 28.0 WSW 5 - 1009.0 - 0.0 - - 10 - - - -
31/08:02pm 29.0 W 5 - 1009.0 - 0.0 - - 9 - - - -
31/08:00pm 29.0 W 5 - 1009.0 - 0.0 - - 8 - - - -
31/07:47pm 29.0 W 6 - 1009.0 - 0.0 - - 5 - - - -
31/07:30pm 29.0 W 6 - 1008.0 - 0.0 - - 10 - - - -
31/07:00pm 29.0 WNW 6 - 1008.0 - 0.0 - - 10 - - - -
31/06:30pm 29.0 WNW 6 - 1008.0 - 0.0 - - 10 - - - -
31/06:00pm 29.7 WNW 7 - 1007.5 - 0.0 - - 10 - - - -
31/05:30pm 30.0 NW 7 - 1007.0 - 0.0 - - 7 - - - -
31/05:00pm 30.0 NW 7 - 1007.0 - 0.0 - - 10 - - - -
31/04:30pm 30.0 NW 8 - 1007.0 - 0.0 - - 10 - - - -
31/04:00pm 31.0 NNW 8 - 1007.0 - 0.0 - - 10 - - - -
31/03:30pm 32.0 NNW 9 - 1007.0 - 0.0 - - 10 - - - -
31/03:00pm 31.8 NNW 10 - 1006.5 - 0.0 - - 9 - - - -
31/02:30pm 33.0 NNW 9 - 1007.0 - 0.0 - - 10 - - - -
31/02:00pm 33.0 NNW 8 - 1007.0 - 0.0 - - 10 - - - -
31/01:30pm 33.0 NW 9 - 1007.0 - 0.0 - - 10 - - - -
31/01:00pm 33.0 NNW 10 - 1008.0 - 0.0 - - 10 - - - -
31/12:30pm 33.0 NNW 9 - 1008.0 - 0.0 - - 10 - - - -
31/12:00pm 32.8 NNW 8 - 1008.1 - 0.0 - - 10 - - - -
31/11:30am 33.0 NW 8 - 1009.0 - 0.0 - - 10 - - - -
31/11:00am 33.0 WNW 7 - 1009.0 - 0.0 - - 10 - - - -
31/10:30am 33.0 WNW 7 - 1009.0 - 0.0 - - 10 - - - -
31/10:00am 33.0 WNW 8 - 1010.0 - 0.0 - - 7 - - - -
31/09:30am 32.0 WNW 7 - 1010.0 - 0.0 - - 10 - - - -
31/09:00am 31.5 NW 5 - 1010.3 - 0.0 - - 10 - - - -
31/08:30am 31.0 W 6 - 1011.0 - 0.0 - - 10 - - - -
31/08:00am 29.0 W 6 - 1011.0 - 0.0 - - 10 - - - -
31/07:30am 29.0 W 6 - 1011.0 - 0.0 - - 10 - - - -
31/07:00am 29.0 WNW 6 - 1010.0 - 0.0 - - 10 - - - -
31/06:30am 28.0 NW 5 - 1010.0 - 0.0 - - 10 - - - -
31/06:00am 27.5 CALM 0 - 1009.4 - 0.0 - - 10 - - - -
31/05:30am 26.0 CALM 0 - 1009.0 - 0.0 - Partly cloudy 10 - - - -
31/05:00am 26.0 CALM 0 - 1008.0 - 0.0 - - 9 - - - -
31/04:30am 27.0 W 3 - 1008.0 - 0.0 - - 10 - - - -
31/04:00am 27.0 W 4 - 1008.0 - 0.0 - - 10 - - - -
31/03:30am 27.0 W 5 - 1007.0 - 0.0 - - 10 - - - -
31/03:00am 27.3 W 5 - 1007.1 - 0.0 - - 10 - - - -
31/02:30am 27.0 W 5 - 1007.0 - 0.0 - - 10 - - - -
31/02:00am 28.0 W 5 - 1007.0 - 0.0 - - 10 - - - -
31/01:30am 27.0 W 5 - 1007.0 - 0.0 - - 10 - - - -
31/01:00am 27.0 WNW 3 - 1008.0 - 0.0 - - 10 - - - -
31/12:30am 27.0 NW 3 - 1008.0 - 0.0 - - 10 - - - -
31/12:00am 27.7 WNW 4 - 1008.2 - 0.0 - - 10 - - - -
 
Date/Time
WST
Temp

°C
Wind Pressure Rain
since 9am
mm
Weather Cloud Vis
km
Sea
Height
m
Swell
Dir
 
Speed
knots
Gust
knots
hPa Trend Height
m
Period
s
Dir
30/11:30pm 28.0 NW 4 - 1009.0 - 0.0 - Partly cloudy 10 - - - -
30/11:00pm 28.0 NW 4 - 1009.0 - 0.0 - Partly cloudy 10 - - - -
30/10:30pm 28.0 NW 4 - 1009.0 - 0.0 - Partly cloudy 10 - - - -
30/10:00pm 28.0 WNW 3 - 1009.0 - 0.0 - Partly cloudy 10 - - - -
30/09:30pm 28.0 WNW 4 - 1009.0 - 0.0 - Partly cloudy 10 - - - -
30/09:00pm 28.2 WNW 5 - 1009.0 - 0.0 - Mostly clear 10 - - - -
30/08:30pm 29.0 W 6 - 1009.0 - 0.0 - - 10 - - - -
30/08:00pm 29.0 W 6 - 1009.0 - 0.0 - - 10 - - - -
30/07:30pm 29.0 WSW 5 - 1008.0 - 0.0 - - 10 - - - -
30/07:00pm 29.0 W 6 - 1008.0 - 0.0 - - 10 - - - -
30/06:30pm 29.0 W 5 - 1008.0 - 0.0 - Partly cloudy 10 - - - -
30/06:00pm 29.5 W 6 - 1007.2 - 0.0 - Mostly clear 10 - - - -
30/05:30pm 30.0 W 6 - 1007.0 - 0.0 - - 10 - - - -
30/05:00pm 30.0 NW 8 - 1007.0 - 0.0 - - 10 - - - -
30/04:30pm 31.0 NNW 7 - 1006.0 - 0.0 - - 10 - - - -
30/04:00pm 31.0 NNW 8 - 1006.0 - 0.0 - - 10 - - - -
30/03:30pm 32.0 WNW 8 - 1006.0 - 0.0 - - 10 - - - -
30/03:00pm 32.4 NW 9 - 1006.1 - 0.0 - - 10 - - - -
30/02:30pm 33.0 NNW 9 - 1006.0 - 0.0 - - 10 - - - -
30/02:00pm 33.0 NW 9 - 1007.0 - 0.0 - - 10 - - - -
30/01:30pm 33.0 NW 9 - 1007.0 - 0.0 - - 10 - - - -
30/01:00pm 32.0 NNW 11 - 1008.0 - 0.0 - - 10 - - - -
30/12:30pm 32.0 NW 10 - 1008.0 - 0.0 - - 10 - - - -
30/12:00pm 32.5 NNW 9 - 1008.2 - 0.0 - - 10 - - - -
30/11:30am 32.0 NNW 10 - 1009.0 - 0.0 - - 10 - - - -
30/11:00am 33.0 NNW 9 - 1009.0 - 0.0 - - 10 - - - -
30/10:30am 32.0 N 8 - 1010.0 - 0.0 - - 10 - - - -
30/10:00am 32.0 N 8 - 1010.0 - 0.0 - - 10 - - - -
30/09:30am 32.0 N 8 - 1010.0 - 0.0 - - 10 - - - -
30/09:00am 31.3 N 7 - 1010.2 - 0.0 - - 10 - - - -
30/08:30am 32.0 NNW 6 - 1010.0 - 0.0 - Partly cloudy 10 - - - -
30/08:00am 31.0 N 4 - 1011.0 - 0.0 - - 10 - - - -
30/07:30am 30.0 N 6 - 1011.0 - 0.0 - Partly cloudy 10 - - - -
30/07:00am 30.0 NNE 4 - 1010.0 - 0.0 - Partly cloudy 10 - - - -
30/06:30am 29.0 CALM 0 - 1010.0 - 0.0 - Partly cloudy 10 - - - -
30/06:00am 27.5 WSW 2 - 1009.1 - 0.0 - - 10 - - - -
30/05:30am 26.0 CALM 0 - 1009.0 - 0.0 - - 10 - - - -
30/05:00am 27.0 SW 3 - 1009.0 - 0.0 - - 10 - - - -
30/04:30am 27.0 WSW 4 - 1008.0 - 0.0 - - 10 - - - -
30/04:00am 27.0 WSW 6 - 1008.0 - 0.0 - - 10 - - - -
30/03:30am 27.0 WSW 5 - 1008.0 - 0.0 - - 10 - - - -
30/03:00am 27.2 WSW 6 - 1007.7 - 0.0 - - 10 - - - -
30/02:30am 27.0 WSW 5 - 1008.0 - 0.0 - - 10 - - - -
30/02:00am 27.0 WSW 6 - 1008.0 - 0.0 - - 10 - - - -
30/01:30am 27.0 WSW 4 - 1008.0 - 0.0 - - 10 - - - -
30/01:00am 27.0 W 5 - 1008.0 - 0.0 - - 10 - - - -
30/12:30am 28.0 W 4 - 1009.0 - 0.0 - - 10 - - - -
30/12:00am 27.6 W 7 - 1008.7 - 0.0 - - 10 - - - -
 
Date/Time
WST
Temp

°C
Wind Pressure Rain
since 9am
mm
Weather Cloud Vis
km
Sea
Height
m
Swell
Dir
 
Speed
knots
Gust
knots
hPa Trend Height
m
Period
s
Dir
29/11:30pm 28.0 W 6 - 1009.0 - 0.0 - - 10 - - - -
29/11:00pm 28.0 W 5 - 1009.0 - 0.0 - - 10 - - - -
29/10:30pm 28.0 W 5 - 1010.0 - 0.0 - - 10 - - - -
29/10:00pm 28.0 W 4 - 1010.0 - 0.0 - - 10 - - - -
29/09:30pm 28.0 WSW 4 - 1010.0 - 0.0 - - 10 - - - -
29/09:00pm 28.0 WSW 4 - 1010.4 - 0.0 - - 10 - - - -
29/08:30pm 28.0 W 3 - 1010.0 - 0.0 - - 10 - - - -
29/08:00pm 29.0 W 5 - 1010.0 - 0.0 - - 10 - - - -

Other Formats:

Comma delimited format used in spreadsheet applications
http://www.bom.gov.au/fwo/IDW60701/IDW60701.95101.axf

JavaScript Object Notation format (JSON) in row-major order
http://www.bom.gov.au/fwo/IDW60701/IDW60701.95101.json